Location: Clermont
(49.3803°N, 2.4116°E)
Time: 23:48:27
(UTC+00:00)

Daily predictions for brighter satellites

Satellite Brightness Start Highest point End
(mag) Time Altitude Azimuth Time Altitude Azimuth Time Altitude Azimuth
Cosmos 2173 Rocket 4.4 16:40:53 10° SSE 16:46:43 43° E 16:52:29 10° NNE
Cosmos 1733 Rocket 3.1 16:44:35 10° S 16:48:49 58° E 16:53:03 10° NNE
Cosmos 2227 Rocket 3.8 16:47:17 10° WSW 16:52:18 31° NW 16:57:20 10° NNE
USA 281 4.4 16:47:54 10° E 16:52:41 22° NE 16:57:28 10° N
Thor Agena Rocket 3.7 16:48:24 10° SSE 16:53:39 88° WSW 16:58:58 10° NNW
CZ-4C R/B 2.8 16:50:15 10° S 16:53:43 25° ESE 16:57:51 10° ENE
Cosmos 1153 Rocket 4.5 16:47:58 10° S 16:54:05 75° E 17:00:13 10° NNE
Cosmos 1452 Rocket 3.7 16:49:29 10° NNW 16:54:45 83° WSW 16:59:59 10° SSE
Cosmos 2242 Rocket 3.8 16:52:42 10° NNW 16:57:12 82° W 17:01:42 10° S
AQUARIUS 4.5 16:55:59 10° SE 17:00:09 43° ENE 17:04:20 10° N
Meteor 1-11 4.3 16:54:39 10° N 17:00:25 61° ENE 17:06:02 10° SSE
Cosmos 1844 4.1 16:55:23 10° S 17:00:54 47° ESE 17:06:25 10° NE
Cosmos 1048 Rocket 4.2 16:56:38 10° SSW 17:01:44 74° WNW 17:06:52 10° NNE
Cosmos 1340 Rocket 3.0 17:07:47 10° S 17:11:29 45° E 17:15:12 10° NNE
Cosmos 44 4.4 17:08:23 10° WSW 17:12:38 37° NW 17:17:09 10° NNE
Cosmos 1674 Rocket 3.5 17:09:03 10° N 17:13:28 70° E 17:17:48 10° SSE
Cosmos 2219 4.3 17:11:22 10° SW 17:16:43 44° NW 17:22:07 10° NNE
PSLV R/B 4.5 17:13:26 10° ESE 17:16:44 24° ENE 17:20:02 10° N
Cosmos 2082 4.5 17:11:53 10° SW 17:17:21 52° NW 17:22:52 10° NNE
Cosmos 2016 Rocket 4.3 17:11:44 10° SSE 17:17:34 44° E 17:23:30 10° NNE
CZ-2D R/B 2.6 17:14:45 10° SSE 17:17:56 83° ENE 17:21:07 10° NNW
Cosmos 614 Rocket 3.9 17:18:19 10° SSW 17:23:30 79° ESE 17:28:44 10° NNE
Resurs 1-3 4.5 17:20:02 10° ESE 17:23:40 27° ENE 17:27:18 10° N
Helios 1A Rocket 3.7 17:23:44 15° ENE 17:25:21 21° E 17:27:57 10° SE
IRS-P3 4.1 17:20:57 10° SSE 17:26:16 77° ENE 17:31:37 10° NNW
SJ-6F 4.2 17:26:08 10° SSE 17:30:03 77° ENE 17:33:59 10° N
BREEZE M DEB (TANK) 4.5 17:10:14 10° WSW 17:33:13 82° SSE 17:37:25 18° E
MOS 1 Rocket 3.0 17:29:07 10° SSE 17:33:17 59° ENE 17:37:33 10° N
Cosmos 1025 Rocket 2.9 17:30:04 10° N 17:34:26 82° ENE 17:38:45 10° SSE
Cosmos 2061 Rocket 4.4 17:29:57 10° SSE 17:35:47 40° E 17:41:36 10° NNE
Cosmos 921 Rocket 3.7 17:32:46 10° SSE 17:36:35 33° E 17:39:40 15° NE
YAOGAN 1 3.0 17:32:48 10° SE 17:36:43 37° ENE 17:40:40 10° N
Cosmos 2263 Rocket 4.0 17:34:27 10° W 17:39:03 26° NW 17:43:42 10° NNE
Cosmos 2100 Rocket 4.1 17:34:13 10° SSW 17:40:27 80° W 17:46:40 10° N
IRAS Rocket 4.3 17:35:50 10° SE 17:41:19 60° ENE 17:46:48 10° N
SPOT 1/Viking Rocket 3.5 17:37:27 10° SSE 17:42:30 60° ENE 17:47:37 10° N
CZ-4 R/B 4.2 17:40:40 10° SSE 17:44:37 68° ENE 17:48:35 10° N
ATLAS CENTAUR R/B 2.2 17:41:52 10° S 17:44:39 23° ESE 17:44:48 23° ESE
SL-19 R/B 4.2 17:40:01 10° SE 17:45:09 53° ENE 17:50:13 10° N
ARIANE 5 R/B 3.3 17:40:49 10° S 17:45:41 54° W 17:50:36 10° NNW
Cosmos 1844 Rocket 2.8 17:40:14 10° SSW 17:45:47 78° WNW 17:51:25 10° NNE
ARIANE 6 FM1 Upper Stage 2.4 17:45:54 10° SW 17:49:54 80° SE 17:52:12 24° NE
Cosmos 1607 4.4 17:43:54 10° WSW 17:49:57 58° NW 17:56:01 10° NE
Cosmos 1833 Rocket 3.0 17:48:13 10° NNW 17:53:38 45° NE 17:57:24 19° ESE
Cosmos 1140 Rocket 4.4 17:52:33 10° SSE 17:56:47 26° E 17:56:57 26° E
Cosmos 1782 Rocket 3.7 17:52:35 10° SSE 17:56:50 48° E 18:01:08 10° NNE
CZ-2D R/B 3.3 17:53:11 10° SSE 17:57:12 82° ENE 18:01:22 10° NNW
Geosat 4.0 17:53:29 10° SSE 17:58:29 85° WSW 18:03:32 10° NNW
SKYMED 2 3.5 17:57:11 10° NNE 18:01:33 70° ESE 18:05:52 10° S
Cosmos 1867 3.5 17:58:00 10° SW 18:03:27 88° SE 18:07:26 19° NE
NOSS 3-4 (A) 4.0 17:58:36 10° NW 18:05:20 79° SW 18:13:17 10° SSE
NOSS 3-4 (C) 3.9 17:58:40 10° NW 18:05:25 80° SW 18:13:20 10° SE
COSMO-SKYMED 1 2.4 18:02:06 11° NNE 18:05:57 56° E 18:10:00 10° S
Cosmos 1606 3.8 18:03:39 10° SW 18:06:07 30° WNW 18:08:35 10° N
SL-16 R/B 4.3 18:03:55 10° N 18:09:12 30° WNW 18:14:28 10° WSW
Cosmos 2344 4.5 18:03:27 10° NW 18:10:04 33° NNE 18:14:01 23° ENE
ATLAS 5 CENTAUR R/B 2.3 18:06:54 10° NNW 18:10:40 34° NE 18:11:09 33° NE
Cosmos 1725 Rocket 4.2 18:05:57 10° SSW 18:12:11 76° W 18:18:31 10° N
Cosmos 1908 Rocket 4.0 18:08:20 10° SSW 18:12:41 64° WNW 18:17:07 10° N
Cosmos 540 Rocket 4.5 18:08:58 10° N 18:12:58 27° NE 18:12:58 27° NE
Tiangong -0.1 18:12:49 10° SW 18:15:12 20° S 18:15:32 19° S
Cosmos 1975 Rocket 2.9 18:12:34 10° N 18:16:52 63° ENE 18:20:47 12° SSE
SL-4 R/B 1.5 18:14:04 10° WNW 18:17:34 89° SSW 18:17:58 69° ESE
Cosmos 1300 Rocket 3.4 18:13:45 10° S 18:18:09 86° E 18:22:34 10° N
YAOGAN 3 4.4 18:19:45 42° SE 18:20:55 59° ENE 18:25:05 10° N
Cosmos 2233 Rocket 4.0 18:17:39 10° S 18:23:56 87° W 18:30:19 10° N
Spot 4 Rocket 4.3 18:20:22 10° S 18:25:26 67° WSW 18:30:33 10° NNW
Resurs 01 Rocket 2.0 18:28:31 45° NE 18:28:31 45° NE 18:32:08 10° N
ATLAS 2AS CENTAUR R/B 4.1 18:23:32 10° NW 18:29:00 24° N 18:31:46 19° NE
BREEZE-M DEB (TANK) 3.0 18:26:48 10° SW 18:29:20 59° SE 18:29:29 58° SE
Cosmos 1441 Rocket 4.3 18:29:30 10° NNW 18:32:37 38° W 18:35:45 10° SSW
Tsikada Rocket 4.4 18:27:37 10° NNW 18:34:00 66° W 18:40:19 10° S
USA 281 3.1 18:31:57 23° SE 18:36:14 72° ENE 18:42:49 10° NNW
Cosmos 2082 Rocket 3.3 18:32:57 10° NNW 18:36:54 27° NNE 18:36:54 27° NNE
Cosmos 1023 Rocket 4.4 18:34:42 10° S 18:39:48 61° ESE 18:39:58 61° E
CARTOSAT-1 3.3 18:40:02 78° NE 18:40:02 78° NE 18:44:07 10° NNW
DNEPR-1 R/B 3.6 18:35:40 10° NW 18:40:04 90° WNW 18:40:51 63° SE
CZ-4C R/B 2.4 18:37:00 10° WSW 18:41:22 56° NW 18:43:42 31° NNE
NOAA 6 4.2 18:39:40 10° S 18:44:48 71° WSW 18:49:59 10° NNW
Cosmos 1269 Rocket 3.8 18:42:35 10° SSW 18:47:49 75° ESE 18:48:28 65° NE
Helios 1A Rocket 4.3 18:57:27 27° NW 18:58:06 29° WNW 19:01:04 10° SW
BREEZE-M DEB (TANK) 4.2 19:06:26 10° SW 19:08:20 39° SSW 19:08:20 39° SSW
Cosmos 1513 Rocket 4.5 19:11:14 10° SSW 19:17:31 82° W 19:23:57 10° N
ATLAS CENTAUR R/B 3.6 19:16:20 10° WSW 19:17:25 18° WSW 19:17:25 18° WSW
Cosmos 1763 Rocket 4.3 19:25:11 10° NNW 19:28:55 46° NW 19:28:55 46° NW
Cosmos 1833 Rocket 4.0 19:32:20 10° NW 19:37:27 36° WSW 19:39:09 29° SW
Nadezhda 4 Rocket 4.2 19:32:04 10° NNW 19:37:44 69° NW 19:37:44 69° NW
SL-12 R/B(2) 4.1 19:37:02 10° SSW 19:44:56 79° SE 19:44:56 79° SE
BREEZE-M DEB (TANK) 4.4 19:19:27 10° WSW 19:49:30 85° SSE 19:50:26 75° E
ATLAS 5 CENTAUR R/B 3.9 19:49:04 10° NW 19:50:42 23° WNW 19:50:42 23° WNW
Resurs 01 Rocket 4.2 20:05:56 18° WNW 20:05:56 18° WNW 20:07:48 10° NW
ATLAS 2AS CENTAUR R/B 4.1 20:15:30 10° NW 20:19:10 28° NNW 20:19:10 28° NNW
Cosmos 2082 Rocket 4.2 20:16:42 10° NNW 20:18:44 23° NW 20:18:44 23° NW
Cosmos 2344 4.1 20:17:58 10° NW 20:24:02 60° NNW 20:24:02 60° NNW
CZ-4C R/B 4.4 20:26:48 10° WNW 20:28:40 18° NW 20:28:40 18° NW
